Weather History for KCBG - March, 2013

Change the Weather History Date:

Saturday, March 9, 2013

  Actual Average Record
Temperature  
Mean Temperature 34 °F -  
Max Temperature 35 °F 36 °F 55 °F (2015)
Min Temperature 32 °F 14 °F -14 °F (1951)
Degree Days  
Heating Degree Days 32    
Moisture  
Dew Point 32 °F    
Average Humidity 92    
Maximum Humidity 100    
Minimum Humidity 80    
Precipitation  
Precipitation 0.55 in - - ()
Sea Level Pressure  
Sea Level Pressure 29.82 in    
Wind  
Wind Speed 4 mph (ESE)    
Max Wind Speed 9 mph    
Max Gust Speed -    
Visibility 2 miles    
Events Fog , Rain , Snow    
Averages and records for this station are not official NWS values.
T = Trace of Precipitation, MM = Missing Value Source: NWS Daily Summary

Daily Weather History Graph

Daily Weather History Graph

Search for Another Location

Airport or City:

Trip Planner

Search our weather history database for the weather conditions in past years. The results will help you decide how hot, cold, wet, or windy it might be!

Date:

Astronomy

Mar. 09, 2013 Rise Set
Actual Time 6:36 AM CST 6:11 PM CST
Civil Twilight 6:06 AM CST 6:40 PM CST
Nautical Twilight 5:32 AM CST 7:15 PM CST
Astronomical Twilight 4:57 AM CST 7:50 PM CST
Moon 5:05 AM CST (3/9) 4:10 PM CST (3/9)
Length of Visible Light 12h 34m
Length of Day
11h 34m
Waning Crescent, 5% of the Moon is Illuminated
Mar 9
Waning Crescent
Mar 11
New
Mar 19
First Quarter
Mar 27
Full
Apr 2
Last Quarter

Hourly Weather History & Observations

Time (CST) Temp. Windchill Dew Point Humidity Pressure Visibility Wind Dir Wind Speed Gust Speed Precip Events Conditions
12:16 AM 32.0 °F 27.5 °F 26.6 °F 80% 30.06 in 7.0 mi ESE 4.6 mph - N/A   Scattered Clouds
12:35 AM 32.0 °F 28.7 °F 28.4 °F 87% 30.06 in 7.0 mi SE 3.5 mph - N/A   Mostly Cloudy
12:56 AM 32.0 °F 28.7 °F 28.4 °F 87% 30.06 in 7.0 mi SE 3.5 mph - N/A   Overcast
1:15 AM 33.8 °F 30.8 °F 28.4 °F 81% 30.05 in 7.0 mi SE 3.5 mph - N/A   Mostly Cloudy
1:35 AM 33.8 °F 30.8 °F 28.4 °F 81% 30.04 in 7.0 mi SE 3.5 mph - N/A   Scattered Clouds
1:56 AM 33.8 °F 29.6 °F 28.4 °F 81% 30.03 in 7.0 mi ESE 4.6 mph - N/A   Scattered Clouds
2:15 AM 33.8 °F 28.6 °F 28.4 °F 81% 30.02 in 7.0 mi ESE 5.8 mph - N/A   Mostly Cloudy
2:36 AM 33.8 °F 27.0 °F 28.4 °F 81% 30.00 in 7.0 mi SE 8.1 mph - N/A   Mostly Cloudy
2:56 AM 33.8 °F 28.6 °F 28.4 °F 81% 29.99 in 5.0 mi SE 5.8 mph - N/A   Overcast
3:15 AM 33.8 °F 29.6 °F 28.4 °F 81% 29.98 in 4.0 mi ESE 4.6 mph - N/A   Overcast
3:36 AM 33.8 °F 27.7 °F 30.2 °F 87% 29.97 in 3.0 mi ESE 6.9 mph - N/A   Overcast
3:56 AM 32.0 °F 25.6 °F 30.2 °F 93% 29.96 in 2.5 mi ESE 6.9 mph - N/A   Overcast
4:15 AM 32.0 °F 25.6 °F 30.2 °F 93% 29.95 in 2.5 mi ESE 6.9 mph - 0.01 in   Mostly Cloudy
4:36 AM 32.0 °F 24.8 °F 30.2 °F 93% 29.94 in 2.5 mi SE 8.1 mph - 0.01 in Snow Light Snow
4:56 AM 32.0 °F 25.6 °F 30.2 °F 93% 29.93 in 2.5 mi ESE 6.9 mph - N/A   Scattered Clouds
5:16 AM 33.8 °F 27.7 °F 30.2 °F 87% 29.92 in 2.5 mi ESE 6.9 mph - 0.02 in   Mostly Cloudy
5:36 AM 32.0 °F 24.8 °F 30.2 °F 93% 29.91 in 2.5 mi ESE 8.1 mph - 0.05 in   Overcast
5:55 AM 32.0 °F 28.7 °F 30.2 °F 93% 29.92 in 2.5 mi SE 3.5 mph - 0.07 in   Overcast
6:16 AM 33.8 °F 29.6 °F 30.2 °F 87% 29.91 in 2.0 mi SE 4.6 mph - 0.04 in   Overcast
6:36 AM 33.8 °F 30.8 °F 30.2 °F 87% 29.91 in 2.0 mi SE 3.5 mph - 0.07 in Snow Light Snow
6:55 AM 33.8 °F 28.6 °F 30.2 °F 87% 29.90 in 2.0 mi ESE 5.8 mph - 0.11 in Snow Light Snow
7:16 AM 33.8 °F 29.6 °F 30.2 °F 87% 29.89 in 1.2 mi ESE 4.6 mph - 0.03 in Snow Light Snow
7:36 AM 33.8 °F 28.6 °F 30.2 °F 87% 29.88 in 1.5 mi ESE 5.8 mph - 0.06 in Snow Light Snow
7:55 AM 33.8 °F 28.6 °F 30.2 °F 87% 29.87 in 1.8 mi ESE 5.8 mph - 0.08 in   Overcast
8:16 AM 33.8 °F 28.6 °F 32.0 °F 93% 29.86 in 1.5 mi ESE 5.8 mph - 0.03 in   Overcast
8:35 AM 33.8 °F 28.6 °F 32.0 °F 93% 29.85 in 1.0 mi ESE 5.8 mph - 0.04 in Rain Light Rain
8:55 AM 33.8 °F 27.0 °F 32.0 °F 93% 29.85 in 1.0 mi SE 8.1 mph - 0.05 in   Overcast
9:15 AM 33.8 °F 28.6 °F 32.0 °F 93% 29.84 in 1.0 mi SE 5.8 mph - N/A   Drizzle
9:36 AM 33.8 °F 27.7 °F 32.0 °F 93% 29.82 in 1.0 mi SE 6.9 mph - 0.01 in Rain Rain
9:55 AM 33.8 °F 27.7 °F 32.0 °F 93% 29.82 in 1.0 mi SSE 6.9 mph - 0.02 in Rain Light Rain
10:16 AM 33.8 °F 29.6 °F 32.0 °F 93% 29.81 in 1.0 mi SE 4.6 mph - 0.01 in   Light Drizzle
10:35 AM 33.8 °F 26.4 °F 32.0 °F 93% 29.81 in 1.0 mi SE 9.2 mph - 0.02 in   Light Drizzle
10:56 AM 33.8 °F 27.7 °F 32.0 °F 93% 29.81 in 1.0 mi SE 6.9 mph - N/A   Drizzle
11:15 AM 33.8 °F 29.6 °F 32.0 °F 93% 29.80 in 1.0 mi SE 4.6 mph - 0.01 in Rain Light Rain
11:36 AM 33.8 °F 29.6 °F 33.8 °F 100% 29.79 in 1.0 mi SE 4.6 mph - 0.01 in   Light Drizzle
11:56 AM 33.8 °F 30.8 °F 33.8 °F 100% 29.78 in 1.0 mi SE 3.5 mph - N/A   Drizzle
12:15 PM 33.8 °F 29.6 °F 33.8 °F 100% 29.78 in 1.0 mi ESE 4.6 mph - 0.01 in   Drizzle
12:36 PM 33.8 °F 29.6 °F 33.8 °F 100% 29.76 in 1.2 mi ESE 4.6 mph - 0.01 in   Light Drizzle
12:55 PM 35.6 °F 32.8 °F 33.8 °F 93% 29.76 in 1.2 mi SE 3.5 mph - 0.02 in Rain Rain
1:15 PM 35.6 °F 32.8 °F 33.8 °F 93% 29.75 in 1.2 mi ESE 3.5 mph - 0.02 in Rain Rain
1:36 PM 35.6 °F 31.7 °F 33.8 °F 93% 29.75 in 1.5 mi ESE 4.6 mph - 0.05 in Rain Light Rain
1:55 PM 35.6 °F 30.7 °F 33.8 °F 93% 29.73 in 1.8 mi East 5.8 mph - 0.07 in Rain Light Rain
2:16 PM 35.6 °F 32.8 °F 33.8 °F 93% 29.72 in 2.0 mi ESE 3.5 mph - 0.01 in Rain Light Rain
2:35 PM 35.6 °F 31.7 °F 33.8 °F 93% 29.71 in 1.8 mi ESE 4.6 mph - 0.01 in Rain Light Rain
2:56 PM 35.6 °F 31.7 °F 33.8 °F 93% 29.71 in 1.5 mi ESE 4.6 mph - N/A Rain Light Rain
3:16 PM 35.6 °F 31.7 °F 33.8 °F 93% 29.70 in 1.0 mi East 4.6 mph - N/A Rain Light Rain
3:35 PM 35.6 °F 31.7 °F 33.8 °F 93% 29.70 in 1.0 mi East 4.6 mph - 0.01 in   Drizzle
3:56 PM 35.6 °F 30.7 °F 33.8 °F 93% 29.70 in 1.0 mi ESE 5.8 mph - N/A   Heavy Drizzle
4:16 PM 35.6 °F 32.8 °F 33.8 °F 93% 29.70 in 1.0 mi ESE 3.5 mph - 0.01 in   Drizzle
4:36 PM 35.6 °F 32.8 °F 33.8 °F 93% 29.69 in 1.0 mi East 3.5 mph - 0.01 in Rain Light Rain
4:55 PM 35.6 °F - 33.8 °F 93% 29.68 in 1.2 mi Calm Calm - 0.03 in Rain Rain
5:15 PM 35.6 °F - 33.8 °F 93% 29.70 in 2.0 mi Calm Calm - 0.01 in   Drizzle
5:35 PM 35.6 °F - 33.8 °F 93% 29.70 in 2.0 mi Calm Calm - 0.01 in Rain Light Rain
5:56 PM 35.6 °F - 33.8 °F 93% 29.70 in 2.5 mi Calm Calm - N/A Rain Light Rain
6:15 PM 35.6 °F - 33.8 °F 93% 29.70 in 1.5 mi Calm Calm - 0.01 in Rain Light Rain
6:36 PM 33.8 °F - 33.8 °F 100% 29.70 in 1.5 mi Calm Calm - 0.01 in Rain Light Rain
6:55 PM 33.8 °F - 32.0 °F 93% 29.71 in 0.5 mi Calm Calm - 0.01 in Rain Light Rain
7:16 PM 33.8 °F - 33.8 °F 100% 29.71 in 1.0 mi Calm Calm - N/A   Light Drizzle
7:36 PM 33.8 °F - 32.0 °F 93% 29.71 in 0.5 mi Calm Calm - 0.01 in Snow Light Snow
7:56 PM 33.8 °F - 32.0 °F 93% 29.71 in 0.5 mi Calm Calm - N/A Fog Fog
8:15 PM 33.8 °F - 32.0 °F 93% 29.72 in 0.5 mi Calm Calm - N/A   Light Drizzle
8:36 PM 33.8 °F - 32.0 °F 93% 29.73 in 0.2 mi Calm Calm - N/A Fog Fog
8:56 PM 33.8 °F - 33.8 °F 100% 29.72 in 0.5 mi Calm Calm - N/A   Light Drizzle
9:15 PM 33.8 °F - 32.0 °F 93% 29.73 in 0.5 mi Calm Calm - N/A   Light Drizzle
9:36 PM 33.8 °F 30.8 °F 32.0 °F 93% 29.74 in 0.5 mi NW 3.5 mph - N/A   Light Drizzle
9:56 PM 33.8 °F 30.8 °F 32.0 °F 93% 29.73 in 1.0 mi NNW 3.5 mph - N/A   Overcast
10:15 PM 33.8 °F 30.8 °F 32.0 °F 93% 29.75 in 1.5 mi NW 3.5 mph - N/A   Overcast
10:36 PM 33.8 °F 27.7 °F 32.0 °F 93% 29.75 in 2.0 mi NNW 6.9 mph - N/A   Overcast
10:56 PM 33.8 °F 30.8 °F 32.0 °F 93% 29.76 in 2.0 mi NW 3.5 mph - N/A   Overcast
11:15 PM 33.8 °F 29.6 °F 32.0 °F 93% 29.76 in 4.0 mi NNW 4.6 mph - 0.01 in   Overcast
11:36 PM 33.8 °F 30.8 °F 32.0 °F 93% 29.78 in 7.0 mi NW 3.5 mph - 0.01 in   Overcast
11:56 PM 33.8 °F - 32.0 °F 93% 29.79 in 7.0 mi Calm Calm - N/A   Overcast